Starlink 36196

operational
NORAD ID: 67107 Int'l Des: 2025-299 Owner: SPXS Country: US Constellation: starlink
LEOCIRCULAR

Über Starlink 36196

Beschreibung wird geladen...

Live-Position

3D-Globus wird geladen...

Nächste Überflüge

Höhenverlauf

Altitude vs Time

uPlot chart will show altitude changes over time

Zweizeiliger Elementsatz

1 67107C 25299F 25349.43312500 .00345920 00000+0 54694-3 0 3491
2 67107 43.0012 301.4766 0007246 268.5260 325.8835 16.02430219 11
Epoch: 15. Dez. 2025 • Age: 58 hours

Aktueller Status

Höhe 269.7 km
Geschwindigkeit 7.75 km/s
Subsatellitenpunkt 39.15°N, 119.81°E
Startdatum 15. Dez. 2025
Alter 2 days
Typ internet

Technische Details

Klassifizierung Payload
Masse 575.00 kg
Trockenmasse 530.00 kg
Gesamtmasse 575.00 kg
Länge 0.30 m
Durchmesser 4.10 m
Spannweite 29.00 m
Form Box + pan
Hersteller SPXS
Bus-Typ Starlink V2MO
Phasenstatus In Orbit
Besitzer/Staat SPXS/US

Große Konstellationen

Loading constellations...